Simultaneous Nadir Overpasses (SNOs) Predictions

Prediction of SNOs between AURA and NPP Satellite Orbit:

Table of predicted SNOs for the next 14.0 days since TLE Epoch: 12/27/2014
Index Date (AURA) Time (AURA) Lat,Lon (AURA) SZA (AURA ) Date (NPP) Time (NPP) Lat,Lon (NPP) SZA (NPP ) Distance(km) Time Diff (sec)
1 12/29/2014 06:29:33 -77.55, 149.37 62.29 12/29/2014 06:28:42 -77.56, 149.44 62.26 1.77 51
2 12/29/2014 07:18:47 78.08, -40.67 117.10 12/29/2014 07:19:14 78.07, -40.73 117.09 1.40 27
3 12/31/2014 22:45:55 -77.63, -94.42 62.48 12/31/2014 22:45:30 -77.62, -94.48 62.45 1.49 25
4 12/31/2014 23:35:03 78.41, 76.84 116.59 12/31/2014 23:35:55 78.41, 76.91 116.53 1.51 52
5 01/03/2015 14:14:07 73.90,-157.54 121.35 01/03/2015 14:12:53 74.02,-158.10 121.50 22.27 74
6 01/03/2015
